Location: Erdweis
(48.5167°N, 15.3500°E)
Time: 10:48:30
(UTC+00:00)

SPOT 1/Viking Rocket - Pass Details

Date: 18 September 2020
Orbit: 777 x 794 km, 98.5° (Epoch: 24 October)

Event Time Altitude Azimuth Distance (km) Brightness Sun altitude
Exits shadow 19:33:45 45° 62° (ENE) 1,066 4.0 -24.2°
Drops below altitude 10° 19:38:30 10° 357° (N) 2,352 6.5 -24.8°
Sets 19:40:54 0° 351° (N) 3,282 7.4 -25.2°
